Date,TemperatureHighF,TemperatureAvgF,TemperatureLowF,DewpointHighF,DewpointAvgF,DewpointLowF,HumidityHigh,HumidityAvg,HumidityLow,PressureMaxIn,PressureMinIn,WindSpeedMaxMPH,WindSpeedAvgMPH,GustSpeedMaxMPH,PrecipitationSumIn
2012-11-17,52.2,51.2,49.3,37.9,36.3,35.0,60,57,53,30.20,30.17,25,14,25,0.08
2012-11-18,62.1,51.6,44.1,35.9,33.6,30.7,60,51,38,30.18,30.04,25,13,25,0.00
2012-11-19,66.2,52.9,42.1,41.0,37.0,33.3,77,56,39,30.07,29.99,17,6,17,0.00
2012-11-20,67.5,46.6,33.3,40.0,34.3,29.3,88,65,33,30.15,30.02,10,4,10,0.00
2012-11-21,64.1,54.0,42.7,44.0,38.5,31.7,70,56,41,30.02,29.67,27,11,27,0.00
2012-11-22,58.0,44.7,24.1,44.5,35.5,18.0,89,71,51,29.97,29.60,30,13,30,0.00
2012-11-23,32.0,22.3,14.9,18.7,14.1,8.7,82,71,53,30.34,29.96,24,11,24,0.00
2012-11-24,28.6,21.3,10.4,18.9,12.9,5.1,86,70,58,30.32,29.76,17,7,17,0.00
2012-11-25,33.1,28.9,23.4,23.0,20.7,10.2,78,71,55,30.13,29.77,20,6,20,0.00
2012-11-26,32.0,20.1,11.2,10.5,7.6,5.2,78,60,36,30.38,30.13,16,5,16,0.00
2012-11-27,40.5,25.7,13.9,26.3,16.9,6.8,81,69,56,30.30,30.04,21,8,21,0.00
2012-11-28,39.6,30.7,24.8,24.2,21.8,19.3,82,70,53,30.30,30.05,15,6,15,0.00
2012-11-29,48.1,34.6,23.4,28.2,24.2,17.7,83,67,43,30.07,30.00,12,4,12,0.00
2012-11-30,36.4,33.4,30.6,30.8,28.1,24.9,90,81,76,30.14,30.02,19,7,19,0.00
2012-12-1,47.3,39.1,33.5,43.2,35.7,31.1,93,88,81,30.03,29.68,24,9,24,0.00
2012-12-2,44.5,35.1,27.4,37.9,32.6,25.6,95,91,77,29.97,29.75,14,4,14,0.00
2012-12-3,57.6,47.2,37.8,51.9,41.0,27.7,95,80,53,29.90,29.52,24,6,24,0.00
2012-12-4,42.7,33.7,22.0,28.6,19.2,11.2,73,56,40,30.36,29.90,12,2,12,0.00
2012-12-5,41.0,29.9,18.7,27.2,16.3,10.0,74,58,45,30.37,29.82,27,12,27,0.00
2012-12-6,49.7,41.5,27.7,37.0,29.4,19.3,81,63,46,29.97,29.74,24,9,24,0.00
2012-12-7,32.0,27.3,22.0,25.7,21.8,16.5,88,80,68,30.02,29.97,11,3,11,0.00
2012-12-8,40.7,30.2,25.4,27.8,24.4,22.1,89,79,59,30.02,29.94,12,2,12,0.03
2012-12-9,31.9,29.6,18.9,29.9,27.3,16.2,93,91,79,29.97,29.77,16,6,18,0.00
2012-12-10,25.6,11.9,0.7,22.3,6.6,-4.8,90,80,56,29.92,29.81,17,6,17,0.00
2012-12-11,21.2,13.5,6.7,14.4,9.2,1.5,88,83,74,29.97,29.76,12,5,12,0.00
2012-12-12,45.9,30.4,10.4,28.6,21.6,7.0,89,71,50,29.97,29.79,19,7,19,0.00
2012-12-13,53.6,34.1,22.0,30.2,21.7,16.7,82,61,38,30.09,29.87,15,4,15,0.00
2012-12-14,45.4,30.1,17.3,30.6,22.1,13.4,90,73,49,30.09,29.75,16,5,16,0.00
2012-12-15,38.5,36.1,32.9,35.0,33.1,30.6,94,89,74,29.75,29.47,20,4,20,0.00
2012-12-16,34.0,25.7,20.5,31.9,22.9,16.4,93,89,85,29.79,29.52,16,6,16,0.00
2012-12-17,26.8,23.4,21.2,21.7,19.7,17.9,89,85,79,29.78,29.66,7,2,7,0.00
2012-12-18,29.9,25.8,23.2,25.5,22.3,20.3,92,87,79,29.79,29.60,10,3,10,0.00
2012-12-19,42.7,29.4,24.5,29.8,24.8,20.1,92,83,58,29.99,29.79,17,5,17,0.00
2012-12-20,28.4,22.3,13.1,21.0,16.9,8.1,86,80,65,30.03,29.81,25,11,25,0.00
2012-12-21,34.7,15.7,8.5,14.1,6.9,3.3,82,70,38,30.22,30.02,14,4,14,0.00
2012-12-22,45.4,21.5,8.6,22.3,10.9,3.5,83,66,35,30.15,29.92,13,3,13,0.00
2012-12-23,32.0,17.8,10.8,14.9,9.5,5.5,84,70,46,30.10,29.96,15,6,15,0.00
2012-12-24,30.1,16.9,5.8,13.4,6.9,-1.1,81,65,44,30.24,29.96,15,6,15,0.00
2012-12-25,27.0,9.9,-0.2,7.2,-0.7,-6.0,78,63,39,30.44,30.24,10,3,10,0.00
2012-12-26,36.9,15.5,4.3,12.1,3.1,-3.3,75,60,33,30.36,30.18,8,3,8,0.00
2012-12-27,22.3,16.2,9.0,15.9,9.7,0.9,85,75,64,30.21,30.10,6,2,6,0.00
2012-12-28,35.6,20.9,13.7,23.8,15.1,9.9,87,79,60,30.10,29.96,8,2,8,0.00
2012-12-29,19.3,10.3,2.3,13.1,5.4,-1.8,88,81,68,30.14,29.97,15,7,16,0.00
2012-12-30,25.9,13.3,0.4,16.6,7.2,-3.7,85,77,60,30.15,29.84,11,4,11,0.00
2012-12-31,25.6,13.6,0.5,11.6,2.5,-7.6,82,63,39,30.22,29.94,14,4,14,0.00
2013-1-1,19.4,5.8,-8.6,15.3,-0.2,-13.5,84,76,53,30.23,29.98,16,5,16,0.00